Tracking 27371 objects as of 7-Jun-2023
HD Live streaming from Space Station
objects crossing your sky now

DELTA 1 DEB

Track DELTA 1 DEB now!
10-day predictions


NORAD ID: 9313
Int'l Code: 1975-004EQ
Perigee: 709.7 km
Apogee: 833.6 km
Inclination: 97.6 °
Period: 100.1 minutes
Semi major axis: 7142 km
RCS: 0.0187 m2 (small)
Launch date: January 22, 1975
Source: United States (US)
Launch site: AIR FORCE WESTERN TEST RANGE (AFWTR)

Note: This is SATELLITE DEBRIS
Your satellite tracking list
Your tracking list is empty




NASA's NSSDC Master Catalog

Two Line Element Set (TLE):
1 09313U 75004EQ  23157.83559371  .00000409  00000-0  14109-3 0  9992
2 09313  97.6049 102.8312 0086730 319.7824  39.6970 14.38191709476608
Source of the keplerian elements: AFSPC